| time (UTC) | temp F | wind direction | speed MPH | gust MPH | rain 1hr in | rain 24hr in | rain mn in | humidity % | barometer mb |
| 20260504194628 | 57 | 83 | 1.0 | 3.0 | 0.00 | 0.00 | 0.00 | 100 | 1015.4 |
| 20260504193626 | 57 | 49 | 0.0 | 2.0 | 0.00 | 0.00 | 0.00 | 100 | 1015.1 |
| 20260504192626 | 57 | 67 | 0.0 | 5.0 | 0.00 | 0.00 | 0.00 | 100 | 1014.8 |
| 20260504191625 | 57 | 125 | 1.0 | 2.0 | 0.00 | 0.00 | 0.00 | 100 | 1014.6 |
| 20260504190622 | 57 | 81 | 2.0 | 4.0 | 0.00 | 0.00 | 0.00 | 100 | 1014.7 |
| 20260504185621 | 58 | 119 | 2.0 | 4.0 | 0.00 | 0.00 | 0.00 | 100 | 1014.4 |
| 20260504184619 | 58 | 76 | 3.0 | 3.0 | 0.00 | 0.00 | 0.00 | 100 | 1014.2 |
| 20260504183618 | 58 | 152 | 0.0 | 4.0 | 0.00 | 0.00 | 0.00 | 100 | 1014.3 |
| 20260504182617 | 58 | 90 | 0.0 | 3.0 | 0.00 | 0.00 | 0.00 | 100 | 1014.0 |
| 20260504181615 | 58 | 144 | 0.0 | 3.0 | 0.00 | 0.00 | 0.00 | 100 | 1013.8 |
| 20260504180614 | 58 | 213 | 1.0 | 3.0 | 0.00 | 0.00 | 0.00 | 100 | 1013.6 |
| 20260504175613 | 58 | 199 | 1.0 | 3.0 | 0.00 | 0.00 | 0.00 | 100 | 1013.3 |
| 20260504174611 | 58 | 85 | 2.0 | 3.0 | 0.00 | 0.00 | 0.00 | 100 | 1013.0 |
| 20260504173610 | 58 | 120 | 1.0 | 2.0 | 0.00 | 0.00 | 0.00 | 100 | 1012.7 |
| 20260504172609 | 58 | 187 | 1.0 | 3.0 | 0.00 | 0.00 | 0.00 | 100 | 1012.4 |
| 20260504171607 | 58 | 45 | 1.0 | 4.0 | 0.00 | 0.00 | 0.00 | 100 | 1012.1 |
| 20260504170606 | 58 | 257 | 3.0 | 4.0 | 0.00 | 0.00 | 0.00 | 100 | 1011.8 |
| 20260504150549 | 62 | 153 | 2.0 | 5.0 | 0.00 | 0.00 | 0.13 | 100 | 1008.8 |
| 20260504140541 | 64 | 85 | 0.0 | 6.0 | 0.00 | 0.00 | 0.13 | 100 | 1007.6 |
| 20260504130535 | 67 | 132 | 1.0 | 3.0 | 0.00 | 0.00 | 0.13 | 100 | 1006.1 |
| 20260504110517 | 70 | 58 | 2.0 | 4.0 | 0.00 | 0.00 | 0.13 | 100 | 1002.4 |
| 20260504100509 | 74 | 85 | 1.0 | 4.0 | 0.00 | 0.00 | 0.13 | 100 | 1000.3 |
| 20260504081454 | 76 | 198 | 3.0 | 14.0 | 0.00 | 0.00 | 0.13 | 100 | 996.5 |
| 20260504080452 | 76 | 208 | 9.0 | 14.0 | 0.00 | 0.00 | 0.13 | 100 | 996.2 |
| 20260504050428 | 78 | 229 | 13.0 | 18.0 | 0.00 | 0.00 | 0.12 | 100 | 994.4 |
| 20260504045426 | 78 | 202 | 11.0 | 17.0 | 0.00 | 0.00 | 0.12 | 100 | 994.3 |
| 20260504043423 | 80 | 215 | 8.0 | 20.0 | 0.00 | 0.00 | 0.12 | 100 | 994.7 |
| 20260504042422 | 81 | 225 | 18.0 | 19.0 | 0.00 | 0.00 | 0.12 | 100 | 994.9 |
| 20260504041421 | 81 | 227 | 14.0 | 18.0 | 0.00 | 0.00 | 0.12 | 100 | 995.0 |
| 20260504040420 | 81 | 227 | 16.0 | 22.0 | 0.00 | 0.00 | 0.12 | 100 | 995.1 |
| 20260504035418 | 81 | 231 | 11.0 | 18.0 | 0.00 | 0.00 | 0.12 | 100 | 995.2 |
| 20260504034417 | 81 | 222 | 9.0 | 12.0 | 0.00 | 0.00 | 0.12 | 100 | 995.5 |
| 20260504033415 | 81 | 234 | 13.0 | 15.0 | 0.00 | 0.00 | 0.12 | 100 | 995.5 |
| 20260504032414 | 81 | 220 | 17.0 | 17.0 | 0.00 | 0.00 | 0.12 | 100 | 995.2 |
| 20260504031413 | 82 | 102 | 6.0 | 12.0 | 0.00 | 0.00 | 0.12 | 100 | 995.5 |
| 20260504030412 | 82 | 189 | 5.0 | 17.0 | 0.00 | 0.00 | 0.12 | 100 | 995.6 |
| 20260504025410 | 82 | 220 | 9.0 | 16.0 | 0.00 | 0.00 | 0.12 | 100 | 995.7 |
| 20260504021405 | 85 | 209 | 11.0 | 13.0 | 0.00 | 0.00 | 0.12 | 100 | 995.7 |
| 20260504020403 | 85 | 217 | 2.0 | 7.0 | 0.00 | 0.00 | 0.12 | 100 | 995.9 |
| 20260504015402 | 85 | 83 | 1.0 | 3.0 | 0.00 | 0.00 | 0.12 | 100 | 996.2 |
| 20260504014400 | 84 | 90 | 0.0 | 2.0 | 0.00 | 0.00 | 0.12 | 100 | 996.3 |
| 20260504013359 | 83 | 56 | 2.0 | 4.0 | 0.00 | 0.00 | 0.12 | 100 | 996.1 |
| 20260504012358 | 83 | 75 | 0.0 | 2.0 | 0.00 | 0.00 | 0.12 | 100 | 996.2 |
| 20260504011356 | 82 | 90 | 1.0 | 3.0 | 0.00 | 0.00 | 0.12 | 100 | 996.5 |
| 20260504010355 | 81 | 74 | 2.0 | 2.0 | 0.00 | 0.00 | 0.12 | 100 | 996.4 |
| 20260504005354 | 79 | 211 | 0.0 | 2.0 | 0.00 | 0.00 | 0.12 | 100 | 996.6 |
| 20260504004352 | 77 | 45 | 0.0 | 0.0 | 0.00 | 0.00 | 0.12 | 100 | 996.8 |
| 20260504003351 | 75 | 76 | 0.0 | 1.0 | 0.00 | 0.00 | 0.12 | 100 | 996.9 |
| 20260504002349 | 74 | 90 | 0.0 | 0.0 | 0.00 | 0.00 | 0.12 | 100 | 996.9 |
| 20260504000342 | 72 | 139 | 0.0 | 0.0 | 0.00 | 0.00 | 0.12 | 100 | 996.7 |
| 20260503235340 | 70 | 45 | 0.0 | 0.0 | 0.00 | 0.00 | 0.12 | 100 | 996.9 |
| 20260503234339 | 70 | 148 | 0.0 | 0.0 | 0.00 | 0.00 | 0.12 | 100 | 996.8 |
| 20260503233338 | 69 | 45 | 0.0 | 0.0 | 0.00 | 0.00 | 0.12 | 100 | 997.1 |
| 20260503232336 | 70 | 90 | 0.0 | 0.0 | 0.00 | 0.00 | 0.12 | 100 | 996.9 |
| 20260503231335 | 70 | 225 | 0.0 | 1.0 | 0.00 | 0.00 | 0.12 | 100 | 997.1 |
| 20260503230334 | 70 | 135 | 0.0 | 0.0 | 0.00 | 0.00 | 0.12 | 100 | 997.1 |
| 20260503225332 | 71 | 112 | 0.0 | 1.0 | 0.00 | 0.00 | 0.12 | 100 | 997.0 |
| 20260503224331 | 71 | 90 | 0.0 | 0.0 | 0.00 | 0.00 | 0.12 | 100 | 997.0 |
| 20260503223330 | 72 | 90 | 0.0 | 2.0 | 0.00 | 0.00 | 0.12 | 100 | 997.0 |
| 20260503222328 | 72 | 216 | 13.0 | 16.0 | 0.00 | 0.00 | 0.12 | 100 | 996.6 |
| 20260503221327 | 71 | 238 | 11.0 | 21.0 | 0.00 | 0.00 | 0.12 | 100 | 996.2 |
| 20260503220326 | 71 | 270 | 12.0 | 21.0 | 0.00 | 0.00 | 0.12 | 100 | 996.3 |
| 20260503215324 | 70 | 220 | 14.0 | 31.0 | 0.00 | 0.00 | 0.12 | 100 | 996.1 |
| 20260503214323 | 70 | 218 | 24.0 | 24.0 | 0.00 | 0.00 | 0.12 | 100 | 995.9 |
| 20260503213322 | 70 | 202 | 12.0 | 23.0 | 0.00 | 0.00 | 0.12 | 100 | 995.8 |
| 20260503212320 | 69 | 229 | 16.0 | 21.0 | 0.00 | 0.00 | 0.12 | 100 | 996.2 |
| 20260503211319 | 69 | 227 | 28.0 | 31.0 | 0.00 | 0.00 | 0.11 | 100 | 995.8 |
| 20260503210317 | 69 | 231 | 22.0 | 28.0 | 0.00 | 0.00 | 0.11 | 100 | 995.4 |
| 20260503205316 | 68 | 227 | 15.0 | 27.0 | 0.00 | 0.00 | 0.11 | 100 | 995.7 |
| 20260503204315 | 68 | 229 | 14.0 | 31.0 | 0.00 | 0.00 | 0.11 | 100 | 995.9 |
| 20260503203313 | 68 | 142 | 4.0 | 19.0 | 0.00 | 0.00 | 0.07 | 100 | 996.1 |
| 20260503202312 | 68 | 227 | 14.0 | 28.0 | 0.00 | 0.00 | 0.05 | 100 | 996.4 |
| 20260503195308 | 68 | 222 | 15.0 | 26.0 | 0.00 | 0.00 | 0.04 | 100 | 997.5 |